Location: Ch�tillon
(48.8024°N, 2.2935°E)
Time: 18:03:01
(UTC+00:00)

RS-15 - Pass Details

Date: 07 July 2022
Orbit: 1881 x 2163 km, 64.8° (Epoch: 11 August)

Event Time Altitude Azimuth Distance (km) Brightness Sun altitude
Rises 00:31:14 0° 320° (NW) 5,699 11.1 -18.2°
Reaches altitude 10° 00:35:30 10° 310° (NW) 4,681 10.4 -18.0°
Maximum altitude 00:44:41 26° 260° (W) 3,479 9.1 -17.8°
Enters shadow 00:51:03 17° 221° (SW) 4,039 9.1 -17.5°
